Weather History for Ozark, AL

Change the Weather History Date:

Saturday, June 29, 2013

  Actual Average Record
Temperature  
Mean Temperature 78 °F -  
Max Temperature 88 °F 86 °F 100 °F (1998)
Min Temperature 69 °F 68 °F 68 °F (2001)
Cooling Degree Days 14    
Growing Degree Days 28 (Base 50)    
Moisture  
Dew Point 71 °F    
Average Humidity 90    
Maximum Humidity 100    
Minimum Humidity 57    
Precipitation  
Precipitation 0.86 in - - ()
Sea Level Pressure  
Sea Level Pressure 29.78 in    
Wind  
Wind Speed 7 mph (SW)    
Max Wind Speed 15 mph    
Max Gust Speed 21 mph    
Visibility 9 miles    
Events Fog , Rain , Thunderstorm    
Averages and records for this station are not official NWS values.
T = Trace of Precipitation, MM = Missing Value Source: NWS Daily Summary

Daily Weather History Graph

Daily Weather History Graph

Search for Another Location

Airport:

Trip Planner

Search our weather history database for the weather conditions in past years. The results will help you decide how hot, cold, wet, or windy it might be!

Date:

Astronomy

Jun. 29, 2013 Rise Set
Actual Time 5:41 AM CDT 7:51 PM CDT
Civil Twilight 5:13 AM CDT 8:19 PM CDT
Nautical Twilight 4:39 AM CDT 8:53 PM CDT
Astronomical Twilight 4:03 AM CDT 9:29 PM CDT
Moon No Moon Rise 12:23 PM CDT (6/29)
Length of Visible Light 15h 05m
Length of Day
14h 09m
Waning Gibbous, 55% of the Moon is Illuminated
Jun 29
Waning Gibbous
Jun 29
Last Quarter
Jul 8
New
Jul 15
First Quarter
Jul 22
Full

Hourly Weather History & Observations

Time (CDT) Temp. Heat Index Dew Point Humidity Pressure Visibility Wind Dir Wind Speed Gust Speed Precip Events Conditions
12:04 AM 71.6 °F - 69.8 °F 94% 29.87 in 0.5 mi West 12.7 mph - N/A Fog , Rain , Thunderstorm Heavy Thunderstorms and Rain
12:09 AM 69.8 °F - 69.8 °F 100% 29.87 in 0.2 mi West 10.4 mph - N/A Fog , Rain , Thunderstorm Heavy Thunderstorms and Rain
12:14 AM 69.8 °F - 69.8 °F 100% 29.86 in 0.2 mi WSW 8.1 mph - N/A Fog , Rain , Thunderstorm Heavy Thunderstorms and Rain
12:19 AM 69.8 °F - 68.0 °F 94% 29.85 in 0.5 mi SW 6.9 mph - N/A Fog , Rain , Thunderstorm Heavy Thunderstorms and Rain
12:24 AM 69.8 °F - 68.0 °F 94% 29.85 in 1.0 mi SW 6.9 mph - N/A Rain , Thunderstorm Heavy Thunderstorms and Rain
12:29 AM 69.8 °F - 68.0 °F 94% 29.84 in 3.0 mi SSW 6.9 mph - N/A Rain , Thunderstorm Light Thunderstorms and Rain
12:58 AM 69.4 °F - 68.5 °F 97% 29.82 in 6.0 mi SSW 8.1 mph - 0.68 in Rain , Thunderstorm Thunderstorms and Rain
1:35 AM 69.8 °F - 69.8 °F 100% 29.81 in 6.0 mi WNW 4.6 mph - N/A Rain Light Rain
1:45 AM 69.8 °F - 69.8 °F 100% 29.82 in 6.0 mi SW 5.8 mph - N/A Rain , Thunderstorm Light Thunderstorms and Rain
1:58 AM 70.0 °F - 69.4 °F 98% 29.80 in 6.0 mi SSE 5.8 mph - 0.12 in Rain , Thunderstorm Light Thunderstorms and Rain
2:01 AM 69.8 °F - 69.8 °F 100% 29.80 in 9.0 mi SE 4.6 mph - N/A Rain , Thunderstorm Light Rain
2:17 AM 69.8 °F - 69.8 °F 100% 29.78 in 9.0 mi East 4.6 mph - N/A Rain , Thunderstorm Light Thunderstorms and Rain
2:25 AM 69.8 °F - 69.8 °F 100% 29.80 in 8.0 mi SSW 3.5 mph - N/A Rain , Thunderstorm Light Thunderstorms and Rain
2:58 AM 70.0 °F - 69.8 °F 99% 29.76 in 7.0 mi East 1.2 mph - 0.04 in Rain , Thunderstorm Light Thunderstorms and Rain
3:03 AM 69.8 °F - 69.8 °F 100% 29.76 in 10.0 mi ENE 2.3 mph - N/A Rain , Thunderstorm Light Rain
3:07 AM 69.8 °F - 69.8 °F 100% 29.77 in 10.0 mi Calm Calm - N/A Rain , Thunderstorm Light Thunderstorms and Rain
3:12 AM 69.8 °F - 69.8 °F 100% 29.77 in 10.0 mi Calm Calm - N/A Thunderstorm Thunderstorm
3:14 AM 69.8 °F - 69.8 °F 100% 29.77 in 10.0 mi North 1.2 mph - N/A Rain , Thunderstorm Light Thunderstorms and Rain
3:26 AM 69.8 °F - 69.8 °F 100% 29.76 in 10.0 mi North 2.3 mph - N/A Rain Light Rain
3:38 AM 69.8 °F - 69.8 °F 100% 29.79 in 10.0 mi WSW 6.9 mph - N/A Rain Light Rain
3:46 AM 69.8 °F - 69.8 °F 100% 29.77 in 10.0 mi SW 5.8 mph - N/A   Mostly Cloudy
3:58 AM 69.8 °F - 69.3 °F 98% 29.77 in 10.0 mi SW 2.3 mph - 0.01 in   Scattered Clouds
4:08 AM 69.8 °F - 69.8 °F 100% 29.78 in 10.0 mi SSE 4.6 mph - N/A   Light Drizzle
4:17 AM 69.8 °F - 69.8 °F 100% 29.77 in 10.0 mi SSE 3.5 mph - N/A Rain , Thunderstorm Light Thunderstorms and Rain
4:37 AM 69.8 °F - 69.8 °F 100% 29.77 in 10.0 mi South 10.4 mph - N/A Rain Light Rain
4:46 AM 69.8 °F - 69.8 °F 100% 29.76 in 10.0 mi SSE 10.4 mph - N/A   Overcast
4:58 AM 70.2 °F - 69.3 °F 97% 29.76 in 10.0 mi SE 6.9 mph - 0.01 in   Mostly Cloudy
5:58 AM 70.0 °F - 69.1 °F 97% 29.76 in 10.0 mi South 5.8 mph - N/A   Scattered Clouds
6:58 AM 70.7 °F - 70.2 °F 98% 29.77 in 10.0 mi South 6.9 mph - N/A   Partly Cloudy
7:25 AM 71.6 °F - 71.6 °F 100% 29.77 in 10.0 mi South 8.1 mph - N/A   Partly Cloudy
7:58 AM 73.6 °F - 71.4 °F 93% 29.77 in 10.0 mi SSW 8.1 mph - N/A   Partly Cloudy
8:13 AM 73.4 °F - 71.6 °F 94% 29.78 in 10.0 mi SSW 10.4 mph - N/A   Mostly Cloudy
8:33 AM 75.2 °F - 71.6 °F 89% 29.78 in 10.0 mi SW 8.1 mph - N/A   Overcast
8:58 AM 74.5 °F - 72.3 °F 93% 29.79 in 10.0 mi SW 9.2 mph - N/A   Overcast
9:58 AM 76.1 °F - 73.2 °F 91% 29.79 in 10.0 mi SW 5.8 mph - N/A   Overcast
10:08 AM 77.0 °F - 73.4 °F 89% 29.79 in 10.0 mi SSW 8.1 mph - N/A   Overcast
10:13 AM 77.0 °F - 73.4 °F 89% 29.79 in 10.0 mi SW 5.8 mph - N/A   Overcast
10:18 AM 77.0 °F - 73.4 °F 89% 29.79 in 10.0 mi SW 6.9 mph - N/A   Overcast
10:23 AM 77.0 °F - 73.4 °F 89% 29.79 in 10.0 mi SW 5.8 mph - N/A   Overcast
10:58 AM 79.5 °F - 73.6 °F 82% 29.79 in 10.0 mi WSW 4.6 mph - N/A   Mostly Cloudy
11:28 AM 82.4 °F 88.2 °F 73.4 °F 74% 29.79 in 10.0 mi West 10.4 mph - N/A   Mostly Cloudy
11:33 AM 82.4 °F 88.2 °F 73.4 °F 74% 29.79 in 10.0 mi West 8.1 mph - N/A   Mostly Cloudy
11:38 AM 82.4 °F 88.2 °F 73.4 °F 74% 29.78 in 10.0 mi West 5.8 mph - N/A   Mostly Cloudy
11:53 AM 82.4 °F 88.2 °F 73.4 °F 74% 29.78 in 10.0 mi WSW 6.9 mph - N/A   Overcast
11:58 AM 82.4 °F 88.2 °F 73.4 °F 74% 29.78 in 10.0 mi WSW 6.9 mph - N/A   Mostly Cloudy
2:58 PM 87.1 °F 94.1 °F 72.5 °F 62% 29.74 in 10.0 mi Variable 2.3 mph - N/A   Mostly Cloudy
3:58 PM 88.2 °F 94.1 °F 71.4 °F 57% 29.73 in 10.0 mi SSW 8.1 mph - N/A   Scattered Clouds
4:58 PM 88.3 °F 94.5 °F 71.6 °F 57% 29.71 in 10.0 mi SW 9.2 mph - N/A   Clear
5:58 PM 87.3 °F 93.6 °F 71.8 °F 60% 29.70 in 10.0 mi SSW 6.9 mph - N/A   Clear
6:58 PM 83.3 °F 89.6 °F 73.6 °F 72% 29.70 in 10.0 mi South 8.1 mph - N/A   Partly Cloudy
7:58 PM 79.3 °F - 71.2 °F 76% 29.73 in 10.0 mi NW 15.0 mph 20.7 mph N/A   Scattered Clouds
8:03 PM 78.8 °F - 69.8 °F 74% 29.74 in 10.0 mi NNW 12.7 mph - N/A   Mostly Cloudy
8:28 PM 77.0 °F - 69.8 °F 78% 29.74 in 10.0 mi Variable 5.8 mph - N/A   Overcast
8:39 PM 77.0 °F - 69.8 °F 78% 29.76 in 10.0 mi WNW 2.3 mph - N/A Thunderstorm Light Drizzle
8:51 PM 75.2 °F - 69.8 °F 83% 29.75 in 10.0 mi WSW 4.6 mph - N/A   Mostly Cloudy
8:55 PM 75.2 °F - 69.8 °F 83% 29.75 in 10.0 mi SW 4.6 mph - N/A Rain Light Rain
8:58 PM 75.2 °F - 69.8 °F 83% 29.75 in 10.0 mi SW 4.6 mph - 0.00 in Rain Light Rain
9:25 PM 75.2 °F - 71.6 °F 89% 29.76 in 10.0 mi South 4.6 mph - N/A   Overcast
9:58 PM 73.9 °F - 71.8 °F 93% 29.76 in 10.0 mi South 5.8 mph - 0.00 in   Mostly Cloudy
10:58 PM 73.8 °F - 72.3 °F 95% 29.76 in 10.0 mi West 3.5 mph - N/A   Mostly Cloudy
11:58 PM 73.8 °F - 71.4 °F 92% 29.76 in 10.0 mi Calm Calm - N/A   Mostly Cloudy